Location: Carri�res
(48.9069°N, 2.1792°E)
Time: 04:50:59
(UTC+00:00)

Cosmos 1354 Rocket - Pass Details

Date: 17 January 2021
Orbit: 764 x 783 km, 74.0° (Epoch: 26 February)

Event Time Altitude Azimuth Distance (km) Brightness Sun altitude
Rises 17:22:43 0° 185° (S) 3,249 7.6 -9.3°
Reaches altitude 10° 17:25:08 10° 181° (S) 2,328 6.8 -9.7°
Maximum altitude 17:30:14 51° 106° (ESE) 976 4.2 -10.4°
Drops below altitude 10° 17:35:24 10° 32° (NNE) 2,350 6.1 -11.2°
Enters shadow 17:36:15 - 30° (NNE) 2,666 6.4 -11.4°
